sat.trackr.live / text

‹ back to catalog

STARLINK-5630

NORAD 55406 · 2023-014R

PAYLOAD ACTIVE UNKNOWN

§ Identity

Operator
Country
US
Launch date
2023-01-31
Launch site
AFWTR
Launch vehicle
Mass (kg)
RCS (m²)

Purposes: comms

External: N2YO · Heavens-Above · Gunter

§ Orbital elements

Epoch: 2026-09-20T12:09:18.437760Z

Period
96.11 min
Inclination
69.9976°
Eccentricity
0.0003584
Mean motion
14.98324892 rev/d
Perigee alt
569.6 km
Apogee alt
574.6 km
Semi-major
6,950.2 km
B*
-8.4969e-5
RAAN
293.3940°
Arg perigee
264.8998°
Mean anomaly
95.1752°
Rev number
20,123

§ Raw data

STARLINK-56301 55406U 23014R   26263.50646340 -.00001107  00000+0 -84969-4 0  99972 55406  69.9976 293.3940 0003584 264.8998  95.1752 14.98324892201231

JSON: /api/v1/satellites/55406 · /tle

For live sub-satellite position, see the globe view (requires WebGL).

§ Visibility from observer

Set your observer location to see the next 7 days of passes ≥ 10°. The values pass through the URL so the page stays shareable.

No JS? Fill the form by hand. The geolocation button needs JavaScript.